Hourly Data Report for August 21, 2018

TORONTO CITY
ONTARIO
Current Station Operator: ECCC - MSC

43°40'00.000" N
79°24'00.000" W
112.50 m
6158355
71508
XTO

Download Data

Hourly Data (August 2018)
Hourly Data Report for August 21, 2018
TIME
LST
Temp Definition
°C
Dew Point Definition
°C
Rel Hum Definition
%
Precip. Amount Definition
mm

Wind Dir Definition
10's deg

Wind Spd Definition
km/h
Visibility Definition
km
Stn Press Definition
kPa
Hmdx Definition


Wind Chill Definition


Weather Definition


00:00 23.0 17.9 73 0.0 LegendMM LegendMM   100.16 29   LegendNANA
01:00 22.7 17.9 74 0.0 LegendMM LegendMM   100.11 29   LegendNANA
02:00 22.4 18.1 77 0.0 LegendMM LegendMM   100.07 28   LegendNANA
03:00 22.2 18.2 78 0.0 LegendMM LegendMM   100.02 28   LegendNANA
04:00 21.9 18.1 79 0.0 LegendMM LegendMM   99.95 28   LegendNANA
05:00 22.1 18.1 78 0.0 LegendMM LegendMM   99.90 28   LegendNANA
06:00 22.2 18.0 77 0.0 LegendMM LegendMM   99.90 28   LegendNANA
07:00 21.0 18.6 86 2.9 LegendMM LegendMM   99.87 27   LegendNANA
08:00 20.8 19.1 90 7.5 LegendMM LegendMM   99.79 28   LegendNANA
09:00 21.1 19.4 90 2.5 LegendMM LegendMM   99.73 28   LegendNANA
10:00 21.3 19.7 90 8.3 LegendMM LegendMM   99.65 29   LegendNANA
11:00 21.6 19.8 90 4.2 LegendMM LegendMM   99.58 29   LegendNANA
12:00 22.5 20.3 88 2.8 LegendMM LegendMM   99.47 30   LegendNANA
13:00 23.2 20.7 86 0.0 LegendMM LegendMM   99.36 31   LegendNANA
14:00 24.0 20.2 79 0.0 LegendMM LegendMM   99.26 32   LegendNANA
15:00 24.8 20.6 78 0.0 LegendMM LegendMM   99.13 33   LegendNANA
16:00 25.3 20.4 74 0.0 LegendMM LegendMM   99.05 33   LegendNANA
17:00 23.5 21.2 87 10.5 LegendMM LegendMM   99.03 32   LegendNANA
18:00 23.4 20.6 84 0.0 LegendMM LegendMM   99.00 31   LegendNANA
19:00 23.8 19.8 78 0.0 LegendMM LegendMM   98.98 31   LegendNANA
20:00 23.4 20.9 86 0.0 LegendMM LegendMM   98.99 32   LegendNANA
21:00 23.5 20.3 82 0.0 LegendMM LegendMM   99.01 31   LegendNANA
22:00 23.3 19.4 79 0.0 LegendMM LegendMM   98.99 30   LegendNANA
23:00 21.6 17.3 76 0.0 LegendMM LegendMM   99.02 27   LegendNANA

Notes on Data Quality.

Legend

  • E = Estimated
  • M = Missing
  • NA = Not Available*
  • [empty] = Indicates an unobserved value
Date modified: